Follow iAlert.com on twitter @ialertcom
Search For Active Alerts in Your Area  
  Hi Guest:  [ Sign-up / Services ] [ Login ]

Current weather by "City, St" or "zip code"  
 

Advertise Here

Current Conditions: Natchitoches, Natchitoches Regional Airport, LA

Fair


59.0 F

Last Updated on Oct 19 2018, 12:55 am CDT
Humidity: 87%
Wind Speed: N 0.0 mph
Barometer 30.27 in
Dewpoint: 54.7 F
Visibility: 10.00 mi
Precip: --
Heat Index: NA
Wind Chill: NA
Current conditions at:

Natchitoches, Natchitoches Regional Airport, LA (KIER)

Lat: 31.73 Lon: 93.099

Local Radar Image active severe weather and emergency alerts image image weather storm and storm spotter reports image weather observation monitoring service image
Local
Radar
Active
Alerts
Storm Reports Obs
Monitoring

iAlert Weather and Emergency Alert Notification Services:


ialert severe weather and emergency alerts by text message and email ialert daily weather forecast by email and text message service ialert real-time weather-observation monitoring and alert notification service ialert storm report monitoring alert notification

Observation History for Natchitoches, Natchitoches Regional Airport, LA


Time Wind
(mph)
Vis
(mi)
Weather Precip (in) Temperature (F) Relative
Humidity
Wind
Chill
(°F)
Heat
Index
(°F)
Pressure
Air Dwpt altimeter
(in)
sea level
(mb)
12:55 am CDT N 0.0 10.00 Fair -- 59.0 54.7 87% NA NA 30.27 M
11:55 pm CDT E 3.5 10.00 Fair -- 60.0 53.2 77% NA NA 30.28 M
10:55 pm CDT N 0.0 10.00 Partly Cloudy -- 61.0 54.1 77% NA NA 30.30 M
9:55 pm CDT NE 4.6 10.00 Overcast -- 62.0 54.5 76% 62 NA 30.31 M
8:55 pm CDT NE 5.8 10.00 Fair -- 63.0 55.6 78% 63 NA 30.29 M
7:55 pm CDT N 0.0 10.00 Fair -- 63.0 55.6 77% NA NA 30.29 M
6:55 pm CDT NE 3.5 10.00 Fair -- 64.0 53.8 69% NA NA 30.28 M
5:55 pm CDT NE 6.9 10.00 Partly Cloudy -- 67.0 55.2 66% NA NA 30.28 M
4:55 pm CDT E 10.4 10.00 Overcast -- 69.0 53.2 58% NA NA 30.28 M
3:55 pm CDT NE 11.5 G 17.3 10.00 Overcast -- 71.0 54.5 57% NA NA 30.28 M
2:55 pm CDT NE 8.1 10.00 Overcast -- 69.0 53.6 57% NA NA 30.29 M
1:55 pm CDT NE 8.1 10.00 Overcast -- 70.0 53.2 55% NA NA 30.31 M
12:55 pm CDT NE 11.5 10.00 Overcast -- 68.0 53.8 61% NA NA 30.34 M
11:55 am CDT NE 10.4 10.00 Overcast -- 67.0 53.2 62% NA NA 30.36 M
10:55 am CDT E 12.7 G 18.4 10.00 Overcast -- 66.0 52.0 61% NA NA 30.37 M
9:55 am CDT NE 9.2 10.00 Overcast -- 64.0 51.8 65% NA NA 30.37 M
8:55 am CDT NE 8.1 10.00 Overcast -- 61.0 50.9 69% 60 NA 30.36 M
7:55 am CDT NE 9.2 G 16.1 10.00 Overcast -- 61.0 50.5 69% 60 NA 30.34 M
6:35 am CDT E 9.2 10.00 Overcast -- 61.0 50.9 70% 60 NA 30.32 M
6:55 am CDT NE 8.1 10.00 Overcast -- 61.0 50.9 70% 60 NA 30.32 M
5:55 am CDT NE 6.9 10.00 Overcast -- 60.0 50.9 71% 59 NA 30.31 M
4:55 am CDT NE 4.6 10.00 Overcast -- 60.0 51.6 74% 60 NA 30.30 M
4:35 am CDT NE 5.8 10.00 Overcast -- 60.0 51.3 73% 60 NA 30.31 M
3:55 am CDT N 0.0 10.00 Overcast -- 60.0 51.6 75% NA NA 30.30 M

Regional Weather Observation


Ft. Polk - Peason Ridge, LA (KAQV)

Fair
61.0 F

Barksdale Air Force Base, LA (KBAD)

A Few Clouds
57.0 F

Shreveport, Shreveport Regional Airport, LA (KSHV)

Overcast
59.0 F

Ft. Polk/Self Strip, LA (KDNK)

Light Rain
66.0 F

Minden Airport, LA (KMNE)

Fair
58.0 F

Fort Polk, Polk AAF Ft Polk, LA (KPOE)

Overcast
61.0 F

Advertise Here